Terug naar catalogus

THORAD DELTA 1 DEB

ActiefSSO
NORAD 8154·DEBRIS·🇺🇸 United States

Gelanceerd Nov 15, 1974 vanaf Vandenberg Space Force Base

Loading…

Volgende Passages (komende 24 uur)

TLE

VersSource: Space-Track

Epoch: Sep 14, 2026, 11:44 UTC

1 08154U 74089U   26257.48900110 -.00000045  00000-0  11538-4 0  9993
2 08154 102.0727 266.0783 0005771 140.2888  15.7699 12.52434992369323

Volg THORAD DELTA 1 DEB in realtime met AllMySat

Download on the App Store